Tracking 22124 objects as of 25-Jan-2021
HD Live streaming from Space Station
objects crossing your sky now

DIRECTV 6 (TEMPO 2)

Track DIRECTV 6 (TEMPO 2) now!
DIRECTV 6 (TEMPO 2) is classified as:


NORAD ID: 24748
Int'l Code: 1997-011A
Perigee: 36,019.0 km
Apogee: 36,273.3 km
Inclination: 10.7 °
Period: 1,454.1 minutes
Semi major axis: 42517 km
RCS: 12.5892 m2 (large)
Launch date: March 8, 1997
Source: United States (US)
Launch site: AIR FORCE EASTERN TEST RANGE (AFETR)

Direct-to-home TV; 32 Ku-band transponders
aabbcc
Your satellite tracking list
Your tracking list is empty




NASA's NSSDC Master Catalog

Two Line Element Set (TLE):
1 24748U 97011A   21024.01444203 -.00000002  00000-0  00000-0 0  9993
2 24748  10.7009  35.6030 0029899 277.4455 262.0234  0.99027672 86973
Source of the keplerian elements: AFSPC